IK8WEQ Weather Reports


Display with metric or nautical units.
time (UTC)temp
F
wind
direction
speed
MPH
gust
MPH
rain 1hr
in
rain 24hr
in
rain mn
in
humidity
%
barometer
mb
20260507112920 72 232 0.0 0.0 0.00 0.00 0.00 100 1013.7
20260507112429 72 233 0.0 0.0 0.00 0.00 0.00 100 1013.7
20260507111922 72 236 0.0 0.0 0.00 0.00 0.00 100 1013.8
20260507111436 72 233 0.0 0.0 0.00 0.00 0.00 100 1013.8
20260507110946 72 236 1.0 0.0 0.00 0.00 0.00 100 1013.8
20260507110418 72 237 0.0 0.0 0.00 0.00 0.00 100 1013.9
20260507105930 72 231 0.0 0.0 0.00 0.00 0.00 100 1014.0
20260507105419 72 234 0.0 0.0 0.00 0.00 0.00 100 1014.1
20260507104929 72 238 0.0 0.0 0.00 0.00 0.00 100 1014.1
20260507104423 72 228 0.0 0.0 0.00 0.00 0.00 100 1014.2
20260507103923 72 187 0.0 0.0 0.00 0.00 0.00 100 1014.3
20260507103435 72 184 0.0 0.0 0.00 0.00 0.00 100 1014.4
20260507102951 72 303 1.0 0.0 0.00 0.00 0.00 100 1014.3
20260507102436 72 315 0.0 0.0 0.00 0.00 0.00 100 1014.4
20260507102017 71 310 2.0 0.0 0.00 0.00 0.00 100 1014.4
20260507101430 71 305 1.0 0.0 0.00 0.00 0.00 100 1014.6
20260507101002 71 311 5.0 0.0 0.00 0.00 0.00 100 1014.5
20260507100442 71 307 2.0 0.0 0.00 0.00 0.00 100 1014.5
20260507095928 70 308 2.0 0.0 0.00 0.00 0.00 100 1014.5
20260507095432 70 200 0.0 0.0 0.00 0.00 0.00 100 1014.4
20260507094923 70 208 5.0 0.0 0.00 0.00 0.00 100 1014.4
20260507094435 70 203 2.0 0.0 0.00 0.00 0.00 100 1014.3
20260507093927 70 207 3.0 0.0 0.00 0.00 0.00 100 1014.2
20260507093429 70 206 5.0 0.0 0.00 0.00 0.00 100 1014.2
20260507092935 70 204 4.0 0.0 0.00 0.00 0.00 100 1014.3
20260507092421 70 201 1.0 0.0 0.00 0.00 0.00 100 1014.2
20260507091921 70 208 5.0 0.0 0.00 0.00 0.00 100 1014.1
20260507091454 71 207 2.0 0.0 0.00 0.00 0.00 100 1014.0
20260507090941 70 215 3.0 0.0 0.00 0.00 0.00 100 1014.1
20260507090430 70 207 4.0 0.0 0.00 0.00 0.00 100 1014.0
20260507085936 70 203 2.0 0.0 0.00 0.00 0.00 100 1014.1
20260507085431 70 202 0.0 0.0 0.00 0.00 0.00 100 1014.2
20260507084923 70 205 2.0 0.0 0.00 0.00 0.00 100 1014.1
20260507084432 70 200 0.0 0.0 0.00 0.00 0.00 100 1014.2
20260507083923 70 205 2.0 0.0 0.00 0.00 0.00 100 1014.3
20260507083436 70 209 4.0 0.0 0.00 0.00 0.00 100 1014.2
20260507082931 70 240 4.0 0.0 0.00 0.00 0.00 100 1014.2
20260507082437 70 252 3.0 0.0 0.00 0.00 0.00 100 1014.3
20260507081934 70 244 0.0 0.0 0.00 0.00 0.00 100 1014.4
20260507081425 70 243 2.0 0.0 0.00 0.00 0.00 100 1014.4
20260507080955 70 249 0.0 0.0 0.00 0.00 0.00 100 1014.3
20260507080424 70 244 0.0 0.0 0.00 0.00 0.00 100 1014.4
20260507075934 70 248 2.0 0.0 0.00 0.00 0.00 100 1014.5
20260507075427 70 242 0.0 0.0 0.00 0.00 0.00 100 1014.4
20260507074922 70 245 0.0 0.0 0.00 0.00 0.00 100 1014.6
20260507074426 69 244 2.0 0.0 0.00 0.00 0.00 100 1014.7
20260507073920 69 243 3.0 0.0 0.00 0.00 0.00 100 1014.7
20260507073417 68 265 3.0 0.0 0.00 0.00 0.00 100 1014.8
20260507072930 68 37 0.0 0.0 0.00 0.00 0.00 100 1014.8
20260507072440 68 39 0.0 0.0 0.00 0.00 0.00 100 1014.7
20260507071929 68 34 0.0 0.0 0.00 0.00 0.00 100 1014.6
20260507071425 67 31 0.0 0.0 0.00 0.00 0.00 100 1014.6
20260507070955 67 29 0.0 0.0 0.00 0.00 0.00 100 1014.6
20260507070448 67 33 0.0 0.0 0.00 0.00 0.00 100 1014.5
20260507065925 67 32 0.0 0.0 0.00 0.00 0.00 100 1014.4
20260507065428 68 35 0.0 0.0 0.00 0.00 0.00 100 1014.4
20260507064942 68 33 0.0 0.0 0.00 0.00 0.00 100 1014.4
20260507064432 68 32 1.0 0.0 0.00 0.00 0.00 100 1014.4
20260507063938 67 37 0.0 0.0 0.00 0.00 0.00 100 1014.4
20260507063428 66 25 1.0 0.0 0.00 0.00 0.00 100 1014.5
20260507062942 67 31 2.0 0.0 0.00 0.00 0.00 100 1014.4
20260507062421 67 41 2.0 0.0 0.00 0.00 0.00 100 1014.2
20260507061937 67 34 2.0 0.0 0.00 0.00 0.00 100 1014.2
20260507061430 66 36 2.0 0.0 0.00 0.00 0.00 100 1014.3
20260507060939 66 30 4.0 0.0 0.00 0.00 0.00 100 1014.3
20260507060432 65 31 0.0 0.0 0.00 0.00 0.00 100 1014.3
20260507055927 65 29 2.0 0.0 0.00 0.00 0.00 100 1014.3
20260507055432 64 25 2.0 0.0 0.00 0.00 0.00 100 1014.5
20260507054925 63 35 2.0 0.0 0.00 0.00 0.00 100 1014.6
20260507054457 62 37 1.0 0.0 0.00 0.00 0.00 100 1014.7
20260507053948 62 54 2.0 0.0 0.00 0.00 0.00 100 1014.6
20260507053422 62 49 3.0 0.0 0.00 0.00 0.00 100 1014.6
20260507052953 62 36 2.0 0.0 0.00 0.00 0.00 100 1014.5
20260507052427 62 28 2.0 0.0 0.00 0.00 0.00 100 1014.5
20260507051922 62 36 3.0 0.0 0.00 0.00 0.00 100 1014.6
20260507051433 62 33 2.0 0.0 0.00 0.00 0.00 100 1014.4
20260507050940 62 36 0.0 0.0 0.00 0.00 0.00 100 1014.4
20260507050428 62 40 0.0 0.0 0.00 0.00 0.00 100 1014.4
20260507045940 62 34 0.0 0.0 0.00 0.00 0.00 100 1014.3
20260507045426 62 35 0.0 0.0 0.00 0.00 0.00 100 1014.3
20260507044921 61 37 0.0 0.0 0.00 0.00 0.00 100 1014.4
20260507044419 61 34 1.0 0.0 0.00 0.00 0.00 100 1014.3
20260507043922 61 38 2.0 0.0 0.00 0.00 0.00 100 1014.2
20260507043432 61 36 2.0 0.0 0.00 0.00 0.00 100 1014.1
20260507042921 61 38 1.0 0.0 0.00 0.00 0.00 100 1014.1
20260507042430 61 42 0.0 0.0 0.00 0.00 0.00 100 1014.2
20260507041921 61 23 3.0 0.0 0.00 0.00 0.00 100 1014.1
20260507041434 61 48 3.0 0.0 0.00 0.00 0.00 100 1014.1
20260507041001 61 45 3.0 0.0 0.00 0.00 0.00 100 1014.1
20260507040450 61 32 5.0 0.0 0.00 0.00 0.00 100 1014.2
20260507035938 61 42 3.0 0.0 0.00 0.00 0.00 100 1014.2
20260507035428 60 72 3.0 0.0 0.00 0.00 0.00 100 1014.2
20260507034922 61 48 1.0 0.0 0.00 0.00 0.00 100 1014.0
20260507034432 60 41 3.0 0.0 0.00 0.00 0.00 100 1014.0
20260507033928 60 32 1.0 0.0 0.00 0.00 0.00 100 1013.9
20260507033423 60 36 3.0 0.0 0.00 0.00 0.00 100 1014.0
20260507032937 60 41 3.0 0.0 0.00 0.00 0.00 100 1013.8
20260507032429 60 32 3.0 0.0 0.00 0.00 0.00 100 1013.9
20260507031945 61 40 2.0 0.0 0.00 0.00 0.00 100 1013.9
20260507031437 60 39 0.0 0.0 0.00 0.00 0.00 100 1013.8
20260507030941 60 35 2.0 0.0 0.00 0.00 0.00 100 1013.7
20260507030432 60 46 0.0 0.0 0.00 0.00 0.00 100 1013.5
20260507025921 61 38 3.0 0.0 0.00 0.00 0.00 100 1013.4
20260507025427 61 35 0.0 0.0 0.00 0.00 0.00 100 1013.4
20260507024956 61 259 0.0 0.0 0.00 0.00 0.00 100 1013.6
20260507024423 61 245 0.0 0.0 0.00 0.00 0.00 100 1013.5
20260507023951 62 243 0.0 0.0 0.00 0.00 0.00 100 1013.7
20260507023420 62 234 0.0 0.0 0.00 0.00 0.00 100 1013.7
20260507022930 62 237 0.0 0.0 0.00 0.00 0.00 100 1013.8
20260507022424 62 241 0.0 0.0 0.00 0.00 0.00 100 1013.9
20260507021939 62 232 0.0 0.0 0.00 0.00 0.00 100 1014.0
20260507021430 62 239 0.0 0.0 0.00 0.00 0.00 100 1014.0
20260507020939 62 234 0.0 0.0 0.00 0.00 0.00 100 1014.1
20260507020436 62 242 0.0 0.0 0.00 0.00 0.00 100 1014.0
20260507015939 62 242 0.0 0.0 0.00 0.00 0.00 100 1014.1
20260507015430 62 152 3.0 0.0 0.00 0.00 0.00 100 1014.0
20260507014921 62 149 2.0 0.0 0.00 0.00 0.00 100 1014.2
20260507014426 62 142 2.0 0.0 0.00 0.00 0.00 100 1014.3
20260507013934 62 39 1.0 0.0 0.00 0.00 0.00 100 1014.2
20260507013429 62 41 0.0 0.0 0.00 0.00 0.00 100 1014.2
20260507012921 63 45 0.0 0.0 0.00 0.00 0.00 100 1014.1
20260507012450 63 43 0.0 0.0 0.00 0.00 0.00 8 1014.3
20260507011920 63 39 0.0 0.0 0.00 0.00 0.00 19 1014.3
20260507011430 62 41 0.0 0.0 0.00 0.00 0.00 33 1014.3
20260507011002 62 42 0.0 0.0 0.00 0.00 0.00 31 1014.3
20260507010438 62 43 0.0 0.0 0.00 0.00 0.00 35 1014.2
20260507005931 62 39 0.0 0.0 0.00 0.00 0.00 33 1014.2
20260507005429 62 41 0.0 0.0 0.00 0.00 0.00 21 1014.2
20260507004925 62 44 0.0 0.0 0.00 0.00 0.00 6 1014.0
20260507004456 63 43 0.0 0.0 0.00 0.00 0.00 2 1014.1
20260507003927 63 42 0.0 0.0 0.00 0.00 0.00 1 1014.0
20260507003436 63 45 0.0 0.0 0.00 0.00 0.00 100 1014.0
20260507002934 63 46 0.0 0.0 0.00 0.00 0.00 100 1014.1
20260507002420 63 43 0.0 0.0 0.00 0.00 0.00 100 1014.2
20260507001935 63 39 0.0 0.0 0.00 0.00 0.00 100 1014.2
20260507001505 63 37 0.0 0.0 0.00 0.00 0.00 100 1014.1
20260507001420 63 37 0.0 0.0 0.00 0.00 0.00 100 1014.1
20260507000947 63 41 0.0 0.0 0.00 0.00 0.00 100 1014.1
20260507000446 63 45 0.0 0.0 0.00 0.00 0.00 100 1014.0
20260506235930 63 41 0.0 0.0 0.00 0.00 0.00 100 1013.9
20260506235425 62 41 0.0 0.0 0.00 0.00 0.00 100 1014.0
20260506234940 63 40 0.0 0.0 0.00 0.00 0.00 100 1014.1
20260506234422 63 36 3.0 0.0 0.00 0.00 0.00 100 1014.2
20260506233936 63 38 3.0 0.0 0.00 0.00 0.00 100 1014.2
20260506233453 63 55 2.0 0.0 0.00 0.00 0.00 100 1014.2
20260506232921 63 52 1.0 0.0 0.00 0.00 0.00 100 1014.5
20260506232429 63 50 0.0 0.0 0.00 0.00 0.00 100 1014.7
20260506231923 63 51 0.0 0.0 0.00 0.00 0.00 100 1014.8
20260506231433 63 58 0.0 0.0 0.00 0.00 0.00 100 1014.7
20260506230940 63 56 0.0 0.0 0.00 0.00 0.00 100 1015.0
20260506230454 63 59 0.0 0.0 0.00 0.00 0.00 100 1014.8
20260506225928 64 151 2.0 0.0 0.00 0.00 0.00 100 1014.7
20260506225439 64 146 0.0 0.0 0.00 0.00 0.00 100 1014.9
20260506224948 64 146 0.0 0.0 0.00 0.00 0.00 100 1014.9
20260506224450 64 154 1.0 0.0 0.00 0.00 0.00 100 1015.0
20260506223926 64 150 2.0 0.0 0.00 0.00 0.00 100 1015.1
20260506223424 64 150 1.0 0.0 0.00 0.00 0.00 100 1015.2
20260506222919 64 149 4.0 0.0 0.00 0.00 0.00 100 1015.3
20260506222428 64 186 3.0 0.0 0.00 0.00 0.00 100 1015.2
20260506221925 65 191 0.0 0.0 0.00 0.00 0.00 100 1015.2
20260506221437 64 191 0.0 0.0 0.00 0.00 0.00 100 1015.3
20260506220945 64 190 0.0 0.0 0.00 0.00 0.00 100 1015.3
20260506220426 64 186 1.0 0.0 0.00 0.00 0.00 100 1015.2
20260506215937 64 189 3.0 0.0 0.00 0.00 0.00 100 1015.3
20260506215431 64 191 2.0 0.0 0.00 0.00 0.00 100 1015.4
20260506214919 64 190 5.0 0.0 0.00 0.00 0.00 100 1015.3
20260506214425 64 195 3.0 0.0 0.00 0.00 0.00 100 1015.3
20260506214019 64 199 3.0 0.0 0.00 0.00 0.00 100 1015.4
20260506213436 64 194 0.0 0.0 0.00 0.00 0.00 100 1015.3
20260506212924 64 202 0.0 0.0 0.00 0.00 0.00 100 1015.3
20260506212458 64 197 0.0 0.0 0.00 0.00 0.00 100 1015.3
20260506211950 64 203 0.0 0.0 0.00 0.00 0.00 100 1015.2
20260506211446 64 197 0.0 0.0 0.00 0.00 0.00 100 1015.3
20260506210940 64 197 0.0 0.0 0.00 0.00 0.00 100 1015.3
20260506210438 64 196 0.0 0.0 0.00 0.00 0.00 100 1015.3
20260506205935 64 197 0.0 0.0 0.00 0.00 0.00 100 1015.3
20260506205420 64 201 0.0 0.0 0.00 0.00 0.00 100 1015.3
20260506204950 64 197 0.0 0.0 0.00 0.00 0.00 100 1015.3
20260506204439 64 196 0.0 0.0 0.00 0.00 0.00 100 1015.4
20260506203943 64 194 1.0 0.0 0.00 0.00 0.00 100 1015.3
20260506203451 65 197 1.0 0.0 0.00 0.00 0.00 100 1015.5
20260506202938 65 190 0.0 0.0 0.00 0.00 0.00 100 1015.5
20260506202425 65 194 0.0 0.0 0.00 0.00 0.00 100 1015.5
20260506201938 65 186 0.0 0.0 0.00 0.00 0.00 100 1015.6
20260506201429 65 190 0.0 0.0 0.00 0.00 0.00 100 1015.6
20260506200941 65 196 0.0 0.0 0.00 0.00 0.00 100 1015.6
20260506200443 66 189 0.0 0.0 0.00 0.00 0.00 100 1015.5
20260506200019 66 192 0.0 0.0 0.00 0.00 0.00 100 1015.6
20260506195936 66 192 0.0 0.0 0.00 0.00 0.00 100 1015.6
20260506195448 66 192 0.0 0.0 0.00 0.00 0.00 100 1015.7
20260506194959 66 193 0.0 0.0 0.00 0.00 0.00 100 1015.8
20260506194454 66 190 0.0 0.0 0.00 0.00 0.00 100 1015.9
20260506194004 66 188 4.0 0.0 0.00 0.00 0.00 100 1015.9
20260506193921 66 188 4.0 0.0 0.00 0.00 0.00 100 1015.9
20260506193433 66 188 4.0 0.0 0.00 0.00 0.00 100 1015.9
20260506192928 66 185 3.0 0.0 0.00 0.00 0.00 100 1015.8
20260506192429 66 184 3.0 0.0 0.00 0.00 0.00 100 1016.0
20260506191920 66 183 2.0 0.0 0.00 0.00 0.00 100 1015.8
20260506191436 66 183 2.0 0.0 0.00 0.00 0.00 100 1015.6
20260506191023 66 184 2.0 0.0 0.00 0.00 0.00 100 1015.6
20260506190437 66 184 4.0 0.0 0.00 0.00 0.00 100 1015.5
20260506185934 66 191 2.0 0.0 0.00 0.00 0.00 100 1015.4
20260506185423 66 185 1.0 0.0 0.00 0.00 0.00 100 1015.0
20260506184939 66 185 3.0 0.0 0.00 0.00 0.00 100 1015.0
20260506184427 66 186 2.0 0.0 0.00 0.00 0.00 100 1015.1
20260506183939 66 191 0.0 0.0 0.00 0.00 0.00 100 1015.0
20260506183435 66 192 0.0 0.0 0.00 0.00 0.00 100 1015.0
20260506182925 66 195 2.0 0.0 0.00 0.00 0.00 100 1014.9
20260506182429 66 198 3.0 0.0 0.00 0.00 0.00 100 1014.7
20260506181944 66 196 1.0 0.0 0.00 0.00 0.00 100 1014.6
20260506181437 66 197 2.0 0.0 0.00 0.00 0.00 100 1014.7
20260506180945 66 199 2.0 0.0 0.00 0.00 0.00 99 1014.7
20260506180427 67 197 2.0 0.0 0.00 0.00 0.00 98 1014.7
20260506175926 67 194 2.0 0.0 0.00 0.00 0.00 99 1014.6
20260506175457 67 199 3.0 0.0 0.00 0.00 0.00 99 1014.5
20260506174949 67 198 0.0 0.0 0.00 0.00 0.00 100 1014.5
20260506174440 67 196 0.0 0.0 0.00 0.00 0.00 100 1014.5
20260506173924 67 190 0.0 0.0 0.00 0.00 0.00 100 1014.5
20260506173434 67 196 0.0 0.0 0.00 0.00 0.00 100 1014.4
20260506172922 66 187 2.0 0.0 0.00 0.00 0.00 100 1014.5
20260506172434 67 188 1.0 0.0 0.00 0.00 0.00 100 1014.5
20260506171949 67 189 3.0 0.0 0.00 0.00 0.00 100 1014.5
20260506171423 67 193 2.0 0.0 0.00 0.00 0.00 100 1014.5
20260506170941 67 190 1.0 0.0 0.00 0.00 0.00 100 1014.5
20260506170420 67 189 2.0 0.0 0.00 0.00 0.00 100 1014.4
20260506165942 67 192 3.0 0.0 0.00 0.00 0.00 100 1014.4
20260506165453 67 194 2.0 0.0 0.00 0.00 0.00 100 1014.4
20260506164926 67 192 0.0 0.0 0.00 0.00 0.00 100 1014.4
20260506164441 68 195 0.0 0.0 0.00 0.00 0.00 100 1014.4
20260506163937 68 193 0.0 0.0 0.00 0.00 0.00 100 1014.4
20260506163427 68 197 0.0 0.0 0.00 0.00 0.00 100 1014.5
20260506162938 67 194 0.0 0.0 0.00 0.00 0.00 100 1014.6
20260506162428 68 201 0.0 0.0 0.00 0.00 0.00 100 1014.5
20260506161923 68 200 0.0 0.0 0.00 0.00 0.00 100 1014.6
20260506161429 68 196 0.0 0.0 0.00 0.00 0.00 100 1014.7
20260506160942 68 198 0.0 0.0 0.00 0.00 0.00 100 1014.6
20260506160456 68 189 0.0 0.0 0.00 0.00 0.00 100 1014.7
20260506155927 68 191 0.0 0.0 0.00 0.00 0.00 100 1014.6
20260506155438 68 196 0.0 0.0 0.00 0.00 0.00 100 1014.6
20260506155010 68 191 0.0 0.0 0.00 0.00 0.00 100 1014.7
20260506154419 68 193 0.0 0.0 0.00 0.00 0.00 100 1014.7
20260506153931 68 192 0.0 0.0 0.00 0.00 0.00 100 1014.8
20260506153441 68 191 0.0 0.0 0.00 0.00 0.00 100 1014.7
20260506153014 68 195 0.0 0.0 0.00 0.00 0.00 100 1014.6
20260506152931 68 195 0.0 0.0 0.00 0.00 0.00 100 1014.6
20260506152442 68 197 0.0 0.0 0.00 0.00 0.00 100 1014.7
20260506151936 68 192 0.0 0.0 0.00 0.00 0.00 100 1014.6
20260506151436 68 196 0.0 0.0 0.00 0.00 0.00 100 1014.6
20260506150943 69 194 0.0 0.0 0.00 0.00 0.00 100 1014.7
20260506150449 69 198 0.0 0.0 0.00 0.00 0.00 100 1014.7
20260506145924 69 193 1.0 0.0 0.00 0.00 0.00 100 1014.7
20260506145432 69 201 0.0 0.0 0.00 0.00 0.00 100 1014.7
20260506144941 69 201 0.0 0.0 0.00 0.00 0.00 100 1014.7
20260506144449 69 199 3.0 0.0 0.00 0.00 0.00 100 1014.7
20260506143932 69 196 0.0 0.0 0.00 0.00 0.00 100 1014.7
20260506143423 69 203 0.0 0.0 0.00 0.00 0.00 100 1014.7
20260506142932 69 214 1.0 0.0 0.00 0.00 0.00 100 1014.8
20260506142440 69 193 1.0 0.0 0.00 0.00 0.00 100 1014.8
20260506141924 69 212 1.0 0.0 0.00 0.00 0.00 100 1014.7
20260506141433 69 204 3.0 0.0 0.00 0.00 0.00 100 1014.6
20260506140941 69 199 0.0 0.0 0.00 0.00 0.00 100 1014.7
20260506140420 69 203 2.0 0.0 0.00 0.00 0.00 100 1014.6
20260506135946 70 191 0.0 0.0 0.00 0.00 0.00 100 1014.6
20260506135435 70 201 2.0 0.0 0.00 0.00 0.00 100 1014.4
20260506134925 70 204 3.0 0.0 0.00 0.00 0.00 100 1014.5
20260506134432 69 197 0.0 0.0 0.00 0.00 0.00 100 1014.6
20260506133954 69 191 1.0 0.0 0.00 0.00 0.00 100 1014.6
20260506133451 69 200 1.0 0.0 0.00 0.00 0.00 100 1014.6
20260506132921 69 202 2.0 0.0 0.00 0.00 0.00 100 1014.6
20260506132430 69 203 4.0 0.0 0.00 0.00 0.00 100 1014.4
20260506131940 70 201 4.0 0.0 0.00 0.00 0.00 100 1014.4
20260506131431 70 202 1.0 0.0 0.00 0.00 0.00 100 1014.5
20260506130941 70 192 0.0 0.0 0.00 0.00 0.00 100 1014.6
20260506130433 70 199 1.0 0.0 0.00 0.00 0.00 100 1014.5
20260506125944 70 204 0.0 0.0 0.00 0.00 0.00 100 1014.5
20260506125453 70 208 0.0 0.0 0.00 0.00 0.00 100 1014.4
20260506124944 70 206 0.0 0.0 0.00 0.00 0.00 100 1014.5
20260506124442 70 209 0.0 0.0 0.00 0.00 0.00 100 1014.5
20260506123934 70 216 0.0 0.0 0.00 0.00 0.00 100 1014.4
20260506123426 70 216 0.0 0.0 0.00 0.00 0.00 100 1014.5
20260506122959 70 221 0.0 0.0 0.00 0.00 0.00 100 1014.4
20260506122922 70 221 0.0 0.0 0.00 0.00 0.00 100 1014.4
20260506122429 70 240 2.0 0.0 0.00 0.00 0.00 99 1014.3
20260506121940 70 234 0.0 0.0 0.00 0.00 0.00 100 1014.4
20260506121429 70 232 0.0 0.0 0.00 0.00 0.00 100 1014.5
20260506120943 70 233 0.0 0.0 0.00 0.00 0.00 100 1014.6
20260506120425 70 213 2.0 0.0 0.00 0.00 0.00 100 1014.7
20260506115936 70 166 0.0 0.0 0.00 0.00 0.00 99 1014.6
20260506115420 70 163 0.0 0.0 0.00 0.00 0.00 98 1014.7
20260506114934 70 192 0.0 0.0 0.00 0.00 0.00 99 1014.8
20260506114425 70 196 0.0 0.0 0.00 0.00 0.00 100 1014.8
20260506114013 70 211 0.0 0.0 0.00 0.00 0.00 100 1014.8
20260506113441 70 214 2.0 0.0 0.00 0.00 0.00 97 1014.8